Weather History for Marathon, FL

Change the Weather History Date:

Thursday, March 28, 2013

  Actual Average Record
Temperature  
Mean Temperature 68 °F 75 °F  
Max Temperature 75 °F 81 °F 87 °F (2011)
Min Temperature 60 °F 70 °F 60 °F (2013)
Degree Days  
Heating Degree Days 0 0  
Month to date heating degree days 23 0  
Since 1 July heating degree days 36 75  
Cooling Degree Days 3 10  
Month to date cooling degree days 163 250  
Year to date cooling degree days 758 632  
Growing Degree Days 17 (Base 50)    
Moisture  
Dew Point 46 °F    
Average Humidity 49    
Maximum Humidity 60    
Minimum Humidity 38    
Precipitation  
Precipitation 0.00 in 0.09 in 0.43 in (2011)
Month to date precipitation 1.39 2.11  
Year to date precipitation 3.77 5.93  
Snow  
Snow 0.00 in - - ()
Month to date snowfall 0.0  
Since 1 July snowfall 0.0  
Snow Depth 0.00 in    
Sea Level Pressure  
Sea Level Pressure 30.21 in    
Wind  
Wind Speed 9 mph (NNE)    
Max Wind Speed 16 mph    
Max Gust Speed 23 mph    
Visibility 10 miles    
Events      
T = Trace of Precipitation, MM = Missing Value Source: NWS Daily Summary

Daily Weather History Graph

Daily Weather History Graph

Search for Another Location

Airport:

Trip Planner

Search our weather history database for the weather conditions in past years. The results will help you decide how hot, cold, wet, or windy it might be!

Date:

Astronomy

Mar. 28, 2013 Rise Set
Actual Time 7:19 AM EDT 7:38 PM EDT
Civil Twilight 6:56 AM EDT 8:01 PM EDT
Nautical Twilight 6:30 AM EDT 8:28 PM EDT
Astronomical Twilight 6:03 AM EDT 8:55 PM EDT
Moon 9:13 PM EDT (3/28) 7:58 AM EDT (3/28)
Length of Visible Light 13h 04m
Length of Day
12h 19m
Full, 98% of the Moon is Illuminated
Mar 28
Full
Apr 3
Last Quarter
Apr 10
New
Apr 18
First Quarter
Apr 25
Full

Hourly Weather History & Observations

Time (EDT) Temp. Dew Point Humidity Pressure Visibility Wind Dir Wind Speed Gust Speed Precip Events Conditions
12:53 AM 63.0 °F 39.0 °F 41% 30.22 in 10.0 mi NNE 12.7 mph - N/A   Clear
1:53 AM 62.1 °F 39.9 °F 44% 30.21 in 10.0 mi NNE 11.5 mph - N/A   Clear
2:53 AM 62.1 °F 39.9 °F 44% 30.20 in 10.0 mi North 11.5 mph 18.4 mph N/A   Clear
3:53 AM 62.1 °F 44.1 °F 52% 30.18 in 10.0 mi North 10.4 mph - N/A   Mostly Cloudy
4:53 AM 61.0 °F 46.0 °F 58% 30.18 in 10.0 mi NNE 10.4 mph 19.6 mph N/A   Scattered Clouds
5:53 AM 61.0 °F 43.0 °F 52% 30.17 in 10.0 mi NNE 12.7 mph - N/A   Partly Cloudy
6:53 AM 61.0 °F 44.1 °F 54% 30.19 in 10.0 mi NNE 12.7 mph 20.7 mph N/A   Mostly Cloudy
7:53 AM 61.0 °F 42.1 °F 50% 30.20 in 10.0 mi NNE 15.0 mph - N/A   Clear
8:53 AM 62.1 °F 42.1 °F 48% 30.22 in 10.0 mi NNE 13.8 mph 20.7 mph N/A   Partly Cloudy
9:53 AM 63.0 °F 43.0 °F 48% 30.25 in 10.0 mi NNE 10.4 mph 21.9 mph N/A   Mostly Cloudy
10:53 AM 66.9 °F 46.0 °F 47% 30.26 in 10.0 mi North 13.8 mph 18.4 mph N/A   Clear
11:53 AM 70.0 °F 46.0 °F 42% 30.26 in 10.0 mi NNE 11.5 mph - N/A   Clear
12:53 PM 72.0 °F 48.0 °F 43% 30.25 in 10.0 mi North 10.4 mph - N/A   Clear
1:53 PM 73.9 °F 46.9 °F 38% 30.22 in 10.0 mi North 10.4 mph - N/A   Clear
2:53 PM 73.9 °F 46.0 °F 37% 30.20 in 10.0 mi North 6.9 mph - N/A   Clear
3:53 PM 73.9 °F 50.0 °F 43% 30.18 in 10.0 mi North 8.1 mph - N/A   Clear
4:53 PM 73.0 °F 48.0 °F 41% 30.17 in 10.0 mi NNW 4.6 mph - N/A   Clear
5:53 PM 72.0 °F 48.0 °F 43% 30.17 in 10.0 mi Variable 5.8 mph - N/A   Clear
6:53 PM 69.1 °F 48.0 °F 47% 30.19 in 10.0 mi North 4.6 mph - N/A   Clear
7:53 PM 66.9 °F 48.9 °F 52% 30.20 in 10.0 mi Calm Calm - N/A   Clear
8:53 PM 66.9 °F 50.0 °F 54% 30.22 in 10.0 mi NNE 3.5 mph - N/A   Clear
9:53 PM 66.0 °F 51.1 °F 59% 30.23 in 10.0 mi NNE 3.5 mph - N/A   Clear
10:53 PM 66.9 °F 52.0 °F 59% 30.24 in 10.0 mi NNE 4.6 mph - N/A   Clear
11:53 PM 66.9 °F 52.0 °F 59% 30.25 in 10.0 mi NE 5.8 mph - N/A   Clear